Location: Barrialito
(10.3588°N, 66.9747°W)
Time: 15:26:26
(UTC+00:00)

Cosmos 1862 Rocket - Pass Details

Date: 10 July 2022
Orbit: 603 x 633 km, 82.5° (Epoch: 13 August)

Event Time Altitude Azimuth Distance (km) Brightness Sun altitude
Rises 07:18:25 0° 28° (NNE) 2,849 7.8 -38.1°
Reaches altitude 10° 07:21:47 10° 56° (NE) 1,951 6.8 -37.4°
Enters shadow 07:23:25 13° 78° (ENE) 1,773 6.5 -37.1°
